Showing default

PANDORE, 63244

Orbit data source: Space-Track

PANDORE, 63244 is a payload satellite owned by U-Space (FR) in SSO that was launched on Sat, 15 Mar 2025 UTC via an FALCON 9 launch vehicle from the Air Force Western Test Range (AFWTR). Payload-class satellites include a variety of spacecraft equipped with specific instruments for various scientific and technological missions. These include communications satellites like Starlink; space stations such as the ISS; scientific satellites like the Hubble; Earth observation satellites from companies like Planet Labs, Umbra, and HawkEye 360; GPS; miniature CubeSats for education and research; and military/defense satellites.

Loading next visibility...
Identifier
63244, 2025-052AL
Orbit
SSO
Country
Flag of FRFR
Related business
Manufacturer
U-Space
Mission
Operational Commercial Technology
Bus & Motor
CUBESAT 12U, Unknown motor
Mass
~16 kg wet, ~16 kg dry
Launch date (UTC)
2025-03-15 (2 years ago)
Launch vehicle
FALCON 9
Launch site
Air Force Western Test Range (AFWTR)
Object type
Payload
Rocket body
Debris
Shape & HBR
Box + 2 Pan, 1.0 m
Radar Cross Section
0.155 m², Medium (>0.1 m² and < 1m²)

Expand to show TLE details & history
Last TLE update: 11 hours ago

TLE from 11 hours ago
0 PANDORE
1 63244U 25052AL  26264.92079357  .00001834  00000-0  17107-3 0  9990
2 63244  97.6754 154.3383 0003347 218.9216 141.1764 14.95415834 83067
Epoch: 2026-09-21T22:05Z
TLE epoch observation values (Epoch: 2026-09-21T22:05:56.564Z)
Latitude
-0.00006°
Longitude
-177.94107°
Altitude
585.947 km
Speed
7.566 km/s
True Right ascension
10h 17m 21s
True Declination
0° 00' 00"
Sunlit
Object was in daylight at epoch
Visualization orbit readout
Latitude
Unknown
Longitude
Unknown
Altitude
Unknown
Speed
Unknown
Apparent Right ascension
Unknown
Apparent Declination
Unknown
Sunlit
N/A
Visualization observer readout
Local Sidereal Time
02:00:10
Azimuth
Unknown
Elevation
Unknown
Doppler factor
Unknown
Orbital elements
Apogee altitude
580.421 km
Perigee altitude
575.764 km
Semi-major axis
6,956.23 km
Eccentricity
0.00033
Inclination
97.6754°
RAAN
154.3383°
Arg. of periapsis
218.9216°
True anomaly
141.20044°
Mean anomaly
141.1764°
Eccentric anomaly
141.18842°
Mean motion
3.74095 °/min
Orbital period
96.23 mins
BSTAR
0.00017107
Loading maneuver chart data...
Computing Atmospheric mass density...
Loading historical data...
Loading historical data...
Loading historical data...
Loading historical data...
Loading historical data...
Loading historical data...
Loading historical data...

Documentation

Showing up to 5 results
|